Change the Weather History Date:

Tuesday, December 10, 2013

  Actual Average Record
Temperature  
Mean Temperature 44 °F -  
Max Temperature 50 °F 62 °F 86 °F (2007)
Min Temperature 36 °F 47 °F 36 °F (2013)
Degree Days  
Heating Degree Days 22    
Moisture  
Dew Point 35 °F    
Average Humidity 81    
Maximum Humidity 95    
Minimum Humidity 54    
Precipitation  
Precipitation 0.00 in - - ()
Sea Level Pressure  
Sea Level Pressure 30.34 in    
Wind  
Wind Speed 12 mph (North)    
Max Wind Speed 18 mph    
Max Gust Speed 28 mph    
Visibility 10 miles    
Events      
Averages and records for this station are not official NWS values.
T = Trace of Precipitation, MM = Missing Value Source: NWS Daily Summary

Daily Weather History Graph

Daily Weather History Graph

Search for Another Location

Airport or City:

Trip Planner

Search our weather history database for the weather conditions in past years. The results will help you decide how hot, cold, wet, or windy it might be!

Date:

Astronomy

Dec. 10, 2013 Rise Set
Actual Time 6:58 AM CST 5:12 PM CST
Civil Twilight 6:31 AM CST 5:39 PM CST
Nautical Twilight 6:02 AM CST 6:08 PM CST
Astronomical Twilight 5:32 AM CST 6:38 PM CST
Moon 12:52 PM CST (12/10) 12:41 AM CST (12/10)
Length of Visible Light 11h 07m
Length of Day
10h 14m
Waxing Gibbous, 62% of the Moon is Illuminated
Dec 10
Waxing Gibbous
Dec 17
Full
Dec 25
Last Quarter
Jan 1
New
Jan 7
First Quarter

Hourly Weather History & Observations

Time (CST) Temp. Windchill Dew Point Humidity Pressure Visibility Wind Dir Wind Speed Gust Speed Precip Events Conditions
12:15 AM 40.1 °F 32.4 °F 38.8 °F 95% 30.25 in 10.0 mi North 13.8 mph 19.6 mph N/A   Overcast
12:35 AM 40.1 °F 32.7 °F 37.9 °F 92% 30.25 in 10.0 mi NNW 12.7 mph 17.3 mph N/A   Overcast
12:55 AM 40.1 °F 33.2 °F 37.6 °F 91% 30.26 in 10.0 mi NNW 11.5 mph 17.3 mph N/A   Overcast
1:15 AM 40.1 °F 32.4 °F 37.6 °F 91% 30.27 in 10.0 mi NNW 13.8 mph 17.3 mph N/A   Overcast
1:35 AM 39.7 °F 32.3 °F 38.1 °F 94% 30.28 in 10.0 mi NNW 12.7 mph 19.6 mph N/A   Overcast
1:55 AM 39.7 °F 30.6 °F 36.1 °F 87% 30.27 in 10.0 mi NNW 18.4 mph 25.3 mph N/A   Overcast
2:15 AM 39.4 °F 31.8 °F 36.0 °F 88% 30.28 in 10.0 mi North 12.7 mph 21.9 mph N/A   Overcast
2:35 AM 39.2 °F 33.6 °F 35.8 °F 88% 30.28 in 10.0 mi NNW 8.1 mph 21.9 mph N/A   Overcast
2:55 AM 39.2 °F 32.0 °F 35.6 °F 87% 30.29 in 10.0 mi North 11.5 mph 18.4 mph N/A   Overcast
3:15 AM 38.7 °F 32.4 °F 35.8 °F 89% 30.30 in 10.0 mi North 9.2 mph 20.7 mph N/A   Mostly Cloudy
3:35 AM 38.8 °F 30.8 °F 35.6 °F 88% 30.30 in 10.0 mi NNW 13.8 mph 18.4 mph N/A   Overcast
4:35 AM 38.3 °F 29.0 °F 34.7 °F 87% 30.32 in 10.0 mi NNW 17.3 mph 27.6 mph N/A   Overcast
4:55 AM 38.3 °F 29.7 °F 33.4 °F 83% 30.33 in 10.0 mi North 15.0 mph 26.5 mph N/A   Overcast
5:15 AM 37.8 °F 29.0 °F 33.1 °F 83% 30.33 in 10.0 mi North 15.0 mph 24.2 mph N/A   Overcast
5:35 AM 37.6 °F 28.4 °F 32.7 °F 83% 30.33 in 10.0 mi North 16.1 mph 27.6 mph N/A   Overcast
5:55 AM 37.4 °F 28.5 °F 32.4 °F 82% 30.35 in 10.0 mi North 15.0 mph 26.5 mph N/A   Overcast
6:00 AM 37.4 °F 27.8 °F 33.8 °F 87% 30.33 in 10.0 mi North 17.3 mph 24.2 mph N/A   Overcast
6:55 AM 37.4 °F 27.8 °F 33.8 °F 87% 30.39 in 10.0 mi North 17.3 mph 24.2 mph N/A   Overcast
7:45 AM 37.4 °F 27.8 °F 33.8 °F 87% 30.39 in 10.0 mi North 17.3 mph 24.2 mph N/A   Overcast
8:52 AM 37.4 °F 29.8 °F 33.8 °F 87% 30.42 in 10.0 mi North 11.5 mph 19.6 mph N/A   Overcast
9:56 AM 39.2 °F 32.0 °F 33.8 °F 81% 30.43 in 10.0 mi NNE 11.5 mph 17.3 mph N/A   Overcast
10:56 AM 42.8 °F 36.6 °F 33.8 °F 70% 30.42 in 10.0 mi NNE 11.5 mph 17.3 mph N/A   Overcast
12:50 PM 46.4 °F 40.4 °F 33.8 °F 62% 30.36 in 10.0 mi NNE 13.8 mph - N/A   Scattered Clouds
1:45 PM 48.2 °F - 33.8 °F 58% 30.33 in 10.0 mi NNE 13.8 mph - N/A   Scattered Clouds
2:55 PM 50.0 °F - 33.8 °F 54% 30.33 in 10.0 mi North 9.2 mph - N/A   Clear
3:50 PM 50.0 °F - 33.8 °F 54% 30.34 in 10.0 mi NNE 11.5 mph 16.1 mph N/A   Clear
4:55 PM 46.4 °F 43.5 °F 33.8 °F 62% 30.34 in 10.0 mi North 5.8 mph - N/A   Clear
5:55 PM 44.6 °F 42.2 °F 33.8 °F 66% 30.36 in 10.0 mi North 4.6 mph - N/A   Clear
7:55 PM 39.2 °F 37.0 °F 33.8 °F 81% 30.37 in 10.0 mi NNE 3.5 mph - N/A   Clear
8:50 PM 39.2 °F 37.0 °F 33.8 °F 81% 30.37 in 10.0 mi NNE 3.5 mph - N/A   Clear
9:50 PM 39.2 °F 37.0 °F 33.8 °F 81% 30.38 in 10.0 mi NNE 3.5 mph - N/A   Clear
10:15 PM 38.3 °F 35.9 °F 33.8 °F 84% 30.38 in 10.0 mi ENE 3.5 mph - N/A   Clear
10:35 PM 37.6 °F 35.1 °F 33.8 °F 86% 30.38 in 10.0 mi NE 3.5 mph - N/A   Clear
10:55 PM 37.6 °F 34.0 °F 33.3 °F 84% 30.37 in 10.0 mi NE 4.6 mph - N/A   Clear
11:15 PM 37.4 °F 34.9 °F 33.1 °F 84% 30.38 in 10.0 mi NE 3.5 mph - N/A   Clear
11:35 PM 37.0 °F - 32.9 °F 85% 30.37 in 10.0 mi Calm Calm - N/A   Clear
11:55 PM 36.9 °F - 32.9 °F 86% 30.37 in 10.0 mi Calm Calm - N/A   Clear